| time (UTC) | temp F | wind direction | speed MPH | gust MPH | rain 1hr in | rain 24hr in | rain mn in | humidity % | barometer mb |
| 20260902135034 | 84 | 242 | 5.0 | 11.0 | 0.00 | 0.00 | 0.00 | 52 | 1019.2 |
| 20260902134558 | 84 | 247 | 6.0 | 11.0 | 0.00 | 0.00 | 0.00 | 51 | 1019.3 |
| 20260902134035 | 84 | 236 | 7.0 | 11.0 | 0.00 | 0.00 | 0.00 | 52 | 1019.2 |
| 20260902133535 | 84 | 264 | 4.0 | 10.0 | 0.00 | 0.00 | 0.00 | 51 | 1019.2 |
| 20260902133106 | 84 | 221 | 4.0 | 10.0 | 0.00 | 0.00 | 0.00 | 51 | 1019.3 |
| 20260902132539 | 84 | 271 | 6.0 | 10.0 | 0.00 | 0.00 | 0.00 | 54 | 1019.4 |
| 20260902132035 | 84 | 221 | 5.0 | 9.0 | 0.00 | 0.00 | 0.00 | 54 | 1019.5 |
| 20260902131605 | 84 | 214 | 5.0 | 10.0 | 0.00 | 0.00 | 0.00 | 53 | 1019.6 |
| 20260902131036 | 83 | 267 | 5.0 | 11.0 | 0.00 | 0.00 | 0.00 | 55 | 1019.5 |
| 20260902130537 | 83 | 244 | 6.0 | 11.0 | 0.00 | 0.00 | 0.00 | 53 | 1019.7 |
| 20260902130053 | 84 | 244 | 5.0 | 10.0 | 0.00 | 0.00 | 0.00 | 53 | 1019.7 |
| 20260902125537 | 84 | 257 | 5.0 | 12.0 | 0.00 | 0.00 | 0.00 | 53 | 1019.6 |
| 20260902125035 | 83 | 267 | 6.0 | 13.0 | 0.00 | 0.00 | 0.00 | 52 | 1019.8 |
| 20260902124553 | 83 | 257 | 6.0 | 13.0 | 0.00 | 0.00 | 0.00 | 54 | 1019.8 |
| 20260902124034 | 83 | 247 | 6.0 | 10.0 | 0.00 | 0.00 | 0.00 | 53 | 1019.8 |
| 20260902123536 | 83 | 261 | 6.0 | 10.0 | 0.00 | 0.00 | 0.00 | 54 | 1019.9 |
| 20260902123057 | 83 | 259 | 5.0 | 10.0 | 0.00 | 0.00 | 0.00 | 54 | 1019.9 |
| 20260902122534 | 83 | 265 | 5.0 | 10.0 | 0.00 | 0.00 | 0.00 | 56 | 1020.0 |
| 20260902122036 | 83 | 261 | 4.0 | 12.0 | 0.00 | 0.00 | 0.00 | 55 | 1020.1 |
| 20260902121556 | 82 | 250 | 5.0 | 12.0 | 0.00 | 0.00 | 0.00 | 56 | 1020.2 |
| 20260902121035 | 82 | 260 | 5.0 | 12.0 | 0.00 | 0.00 | 0.00 | 56 | 1020.2 |
| 20260902120536 | 82 | 273 | 4.0 | 10.0 | 0.00 | 0.00 | 0.00 | 55 | 1020.3 |
| 20260902120104 | 83 | 248 | 6.0 | 10.0 | 0.00 | 0.00 | 0.00 | 55 | 1020.3 |
| 20260902115537 | 82 | 179 | 4.0 | 8.0 | 0.00 | 0.00 | 0.00 | 57 | 1020.4 |
| 20260902115035 | 82 | 243 | 4.0 | 8.0 | 0.00 | 0.00 | 0.00 | 55 | 1020.4 |
| 20260902114600 | 81 | 236 | 4.0 | 9.0 | 0.00 | 0.00 | 0.00 | 56 | 1020.4 |
| 20260902114036 | 81 | 213 | 5.0 | 9.0 | 0.00 | 0.00 | 0.00 | 56 | 1020.5 |
| 20260902113535 | 82 | 259 | 4.0 | 9.0 | 0.00 | 0.00 | 0.00 | 56 | 1020.5 |
| 20260902113052 | 81 | 201 | 4.0 | 9.0 | 0.00 | 0.00 | 0.00 | 59 | 1020.4 |
| 20260902112535 | 81 | 258 | 4.0 | 9.0 | 0.00 | 0.00 | 0.00 | 57 | 1020.6 |
| 20260902112037 | 80 | 221 | 4.0 | 9.0 | 0.00 | 0.00 | 0.00 | 59 | 1020.6 |
| 20260902111557 | 80 | 252 | 5.0 | 9.0 | 0.00 | 0.00 | 0.00 | 58 | 1020.8 |
| 20260902111038 | 80 | 272 | 5.0 | 9.0 | 0.00 | 0.00 | 0.00 | 58 | 1020.9 |
| 20260902110536 | 79 | 244 | 4.0 | 9.0 | 0.00 | 0.00 | 0.00 | 59 | 1021.0 |
| 20260902110058 | 78 | 222 | 5.0 | 8.0 | 0.00 | 0.00 | 0.00 | 62 | 1021.0 |
| 20260902105535 | 77 | 261 | 4.0 | 8.0 | 0.00 | 0.00 | 0.00 | 65 | 1021.1 |
| 20260902105035 | 77 | 257 | 4.0 | 8.0 | 0.00 | 0.00 | 0.00 | 65 | 1021.2 |
| 20260902104615 | 77 | 238 | 2.0 | 6.0 | 0.00 | 0.00 | 0.00 | 65 | 1021.2 |
| 20260902104034 | 77 | 231 | 3.0 | 6.0 | 0.00 | 0.00 | 0.00 | 64 | 1021.3 |
| 20260902103535 | 77 | 245 | 2.0 | 6.0 | 0.00 | 0.00 | 0.00 | 63 | 1021.3 |
| 20260902103101 | 78 | 228 | 2.0 | 6.0 | 0.00 | 0.00 | 0.00 | 64 | 1021.3 |
| 20260902102535 | 77 | 180 | 3.0 | 6.0 | 0.00 | 0.00 | 0.00 | 64 | 1021.3 |
| 20260902102036 | 77 | 164 | 1.0 | 4.0 | 0.00 | 0.00 | 0.00 | 64 | 1021.4 |
| 20260902101558 | 77 | 180 | 1.0 | 5.0 | 0.00 | 0.00 | 0.00 | 65 | 1021.4 |
| 20260902101035 | 77 | 194 | 2.0 | 6.0 | 0.00 | 0.00 | 0.00 | 62 | 1021.4 |
| 20260902100535 | 78 | 163 | 2.0 | 6.0 | 0.00 | 0.00 | 0.00 | 64 | 1021.4 |
| 20260902100118 | 78 | 180 | 3.0 | 6.0 | 0.00 | 0.00 | 0.00 | 62 | 1021.4 |
| 20260902095534 | 78 | 169 | 2.0 | 6.0 | 0.00 | 0.00 | 0.00 | 66 | 1021.5 |
| 20260902095035 | 77 | 175 | 3.0 | 6.0 | 0.00 | 0.00 | 0.00 | 64 | 1021.5 |
| 20260902094553 | 77 | 150 | 1.0 | 5.0 | 0.00 | 0.00 | 0.00 | 67 | 1021.4 |
| 20260902094035 | 76 | 178 | 2.0 | 5.0 | 0.00 | 0.00 | 0.00 | 66 | 1021.5 |
| 20260902093535 | 76 | 250 | 1.0 | 6.0 | 0.00 | 0.00 | 0.00 | 66 | 1021.5 |
| 20260902093120 | 75 | 192 | 1.0 | 6.0 | 0.00 | 0.00 | 0.00 | 66 | 1021.5 |
| 20260902092534 | 75 | 175 | 2.0 | 4.0 | 0.00 | 0.00 | 0.00 | 68 | 1021.5 |
| 20260902092034 | 74 | 175 | 0.0 | 4.0 | 0.00 | 0.00 | 0.00 | 69 | 1021.6 |
| 20260902091606 | 74 | 172 | 0.0 | 4.0 | 0.00 | 0.00 | 0.00 | 69 | 1021.6 |
| 20260902091036 | 74 | 168 | 1.0 | 4.0 | 0.00 | 0.00 | 0.00 | 68 | 1021.7 |
| 20260902090535 | 73 | 0 | 1.0 | 4.0 | 0.00 | 0.00 | 0.00 | 68 | 1021.9 |
| 20260902090100 | 73 | 240 | 1.0 | 4.0 | 0.00 | 0.00 | 0.00 | 69 | 1021.9 |
| 20260902085535 | 73 | 173 | 1.0 | 5.0 | 0.00 | 0.00 | 0.00 | 70 | 1021.9 |
| 20260902085034 | 73 | 132 | 1.0 | 5.0 | 0.00 | 0.00 | 0.00 | 69 | 1021.9 |
| 20260902084556 | 73 | 175 | 2.0 | 5.0 | 0.00 | 0.00 | 0.00 | 71 | 1021.8 |
| 20260902084035 | 73 | 236 | 2.0 | 4.0 | 0.00 | 0.00 | 0.00 | 69 | 1021.9 |
| 20260902083534 | 72 | 225 | 2.0 | 4.0 | 0.00 | 0.00 | 0.00 | 71 | 1021.8 |
| 20260902083110 | 72 | 213 | 1.0 | 4.0 | 0.00 | 0.00 | 0.00 | 71 | 1021.8 |
| 20260902082534 | 72 | 162 | 0.0 | 3.0 | 0.00 | 0.00 | 0.00 | 72 | 1021.8 |
| 20260902082036 | 72 | 223 | 1.0 | 3.0 | 0.00 | 0.00 | 0.00 | 70 | 1021.8 |
| 20260902081612 | 71 | 0 | 1.0 | 3.0 | 0.00 | 0.00 | 0.00 | 70 | 1021.7 |
| 20260902081036 | 71 | 0 | 0.0 | 2.0 | 0.00 | 0.00 | 0.00 | 74 | 1021.8 |
| 20260902080536 | 71 | 0 | 0.0 | 3.0 | 0.00 | 0.00 | 0.00 | 72 | 1021.9 |
| 20260902080101 | 71 | 198 | 0.0 | 3.0 | 0.00 | 0.00 | 0.00 | 77 | 1021.7 |
| 20260902075534 | 70 | 0 | 1.0 | 3.0 | 0.00 | 0.00 | 0.00 | 76 | 1021.7 |
| 20260902075034 | 70 | 0 | 1.0 | 3.0 | 0.00 | 0.00 | 0.00 | 76 | 1021.7 |
| 20260902074606 | 69 | 153 | 0.0 | 2.0 | 0.00 | 0.00 | 0.00 | 79 | 1021.6 |
| 20260902074034 | 69 | 0 | 0.0 | 3.0 | 0.00 | 0.00 | 0.00 | 78 | 1021.6 |
| 20260902073536 | 69 | 0 | 1.0 | 3.0 | 0.00 | 0.00 | 0.00 | 76 | 1021.5 |
| 20260902073059 | 69 | 115 | 1.0 | 4.0 | 0.00 | 0.00 | 0.00 | 77 | 1021.5 |
| 20260902072535 | 69 | 105 | 1.0 | 4.0 | 0.00 | 0.00 | 0.00 | 74 | 1021.5 |
| 20260902072035 | 69 | 201 | 1.0 | 2.0 | 0.00 | 0.00 | 0.00 | 74 | 1021.6 |
| 20260902071613 | 69 | 276 | 0.0 | 2.0 | 0.00 | 0.00 | 0.00 | 75 | 1021.5 |
| 20260902071035 | 69 | 276 | 0.0 | 1.0 | 0.00 | 0.00 | 0.00 | 74 | 1021.6 |
| 20260902070534 | 69 | 0 | 0.0 | 1.0 | 0.00 | 0.00 | 0.00 | 76 | 1021.5 |
| 20260902070108 | 69 | 0 | 0.0 | 1.0 | 0.00 | 0.00 | 0.00 | 76 | 1021.5 |
| 20260902065537 | 69 | 0 | 0.0 | 1.0 | 0.00 | 0.00 | 0.00 | 75 | 1021.6 |
| 20260902065038 | 69 | 0 | 0.0 | 1.0 | 0.00 | 0.00 | 0.00 | 76 | 1021.6 |
| 20260902064612 | 69 | 240 | 0.0 | 2.0 | 0.00 | 0.00 | 0.00 | 76 | 1021.6 |
| 20260902064034 | 69 | 0 | 0.0 | 2.0 | 0.00 | 0.00 | 0.00 | 77 | 1021.5 |
| 20260902063534 | 69 | 198 | 0.0 | 3.0 | 0.00 | 0.00 | 0.00 | 78 | 1021.5 |
| 20260902063131 | 68 | 0 | 0.0 | 3.0 | 0.00 | 0.00 | 0.00 | 78 | 1021.5 |
| 20260902062535 | 68 | 0 | 1.0 | 3.0 | 0.00 | 0.00 | 0.00 | 78 | 1021.4 |
| 20260902062034 | 68 | 248 | 1.0 | 2.0 | 0.00 | 0.00 | 0.00 | 77 | 1021.4 |
| 20260902061601 | 68 | 267 | 0.0 | 2.0 | 0.00 | 0.00 | 0.00 | 78 | 1021.4 |
| 20260902061037 | 68 | 0 | 0.0 | 2.0 | 0.00 | 0.00 | 0.00 | 78 | 1021.5 |
| 20260902060534 | 67 | 0 | 0.0 | 3.0 | 0.00 | 0.00 | 0.00 | 79 | 1021.5 |
| 20260902060137 | 67 | 0 | 0.0 | 4.0 | 0.00 | 0.00 | 0.00 | 80 | 1021.5 |
| 20260902055535 | 67 | 35 | 1.0 | 5.0 | 0.00 | 0.00 | 0.00 | 80 | 1021.4 |
| 20260902055036 | 66 | 63 | 2.0 | 6.0 | 0.00 | 0.00 | 0.00 | 81 | 1021.5 |
| 20260902054600 | 66 | 70 | 3.0 | 6.0 | 0.00 | 0.00 | 0.00 | 81 | 1021.4 |
| 20260902054038 | 66 | 87 | 0.0 | 6.0 | 0.00 | 0.00 | 0.00 | 82 | 1021.3 |
| 20260902053618 | 66 | 0 | 0.0 | 2.0 | 0.00 | 0.00 | 0.00 | 82 | 1021.3 |
| 20260902053105 | 66 | 0 | 0.0 | 2.0 | 0.00 | 0.00 | 0.00 | 82 | 1021.2 |
| 20260902052534 | 66 | 0 | 0.0 | 2.0 | 0.00 | 0.00 | 0.00 | 81 | 1021.2 |
| 20260902052034 | 66 | 28 | 1.0 | 5.0 | 0.00 | 0.00 | 0.00 | 81 | 1021.1 |
| 20260902051607 | 66 | 47 | 1.0 | 5.0 | 0.00 | 0.00 | 0.00 | 82 | 1021.1 |
| 20260902051035 | 65 | 72 | 2.0 | 4.0 | 0.00 | 0.00 | 0.00 | 82 | 1021.3 |
| 20260902050535 | 65 | 0 | 0.0 | 2.0 | 0.00 | 0.00 | 0.00 | 82 | 1021.3 |
| 20260902050056 | 65 | 34 | 1.0 | 2.0 | 0.00 | 0.00 | 0.00 | 82 | 1021.2 |
| 20260902045537 | 65 | 0 | 0.0 | 3.0 | 0.00 | 0.00 | 0.00 | 82 | 1021.1 |
| 20260902045035 | 65 | 0 | 0.0 | 3.0 | 0.00 | 0.00 | 0.00 | 82 | 1021.2 |
| 20260902044554 | 65 | 296 | 1.0 | 3.0 | 0.00 | 0.00 | 0.00 | 81 | 1021.2 |
| 20260902044035 | 65 | 12 | 1.0 | 3.0 | 0.00 | 0.00 | 0.00 | 81 | 1021.0 |
| 20260902043536 | 66 | 9 | 1.0 | 3.0 | 0.00 | 0.00 | 0.00 | 81 | 1020.9 |
| 20260902043109 | 66 | 334 | 1.0 | 3.0 | 0.00 | 0.00 | 0.00 | 81 | 1021.0 |
| 20260902042537 | 66 | 355 | 1.0 | 3.0 | 0.00 | 0.00 | 0.00 | 81 | 1020.9 |
| 20260902042037 | 66 | 342 | 1.0 | 3.0 | 0.00 | 0.00 | 0.00 | 80 | 1020.7 |
| 20260902041600 | 66 | 350 | 1.0 | 3.0 | 0.00 | 0.00 | 0.00 | 80 | 1020.6 |
| 20260902041034 | 66 | 15 | 1.0 | 3.0 | 0.00 | 0.00 | 0.00 | 80 | 1020.8 |
| 20260902040535 | 66 | 351 | 1.0 | 2.0 | 0.00 | 0.00 | 0.00 | 80 | 1020.6 |
| 20260902040057 | 66 | 355 | 1.0 | 3.0 | 0.00 | 0.00 | 0.00 | 79 | 1020.5 |
| 20260902035534 | 66 | 348 | 1.0 | 3.0 | 0.00 | 0.00 | 0.00 | 79 | 1020.6 |
| 20260902035037 | 66 | 343 | 1.0 | 3.0 | 0.00 | 0.00 | 0.00 | 80 | 1020.5 |
| 20260902034604 | 67 | 340 | 1.0 | 3.0 | 0.00 | 0.00 | 0.00 | 79 | 1020.6 |
| 20260902034034 | 67 | 284 | 0.0 | 3.0 | 0.00 | 0.00 | 0.00 | 79 | 1020.7 |
| 20260902033534 | 67 | 42 | 1.0 | 3.0 | 0.00 | 0.00 | 0.00 | 79 | 1020.6 |
| 20260902033053 | 67 | 0 | 1.0 | 3.0 | 0.00 | 0.00 | 0.00 | 79 | 1020.5 |
| 20260902032540 | 67 | 352 | 1.0 | 3.0 | 0.00 | 0.00 | 0.00 | 79 | 1020.7 |
| 20260902032035 | 67 | 9 | 1.0 | 2.0 | 0.00 | 0.00 | 0.00 | 78 | 1020.6 |
| 20260902031603 | 68 | 0 | 0.0 | 2.0 | 0.00 | 0.00 | 0.00 | 78 | 1020.6 |
| 20260902031035 | 68 | 15 | 0.0 | 3.0 | 0.00 | 0.00 | 0.00 | 77 | 1020.7 |
| 20260902030535 | 68 | 23 | 0.0 | 3.0 | 0.00 | 0.00 | 0.00 | 77 | 1020.8 |
| 20260902030054 | 68 | 16 | 1.0 | 3.0 | 0.00 | 0.00 | 0.00 | 77 | 1020.7 |
| 20260902025535 | 68 | 13 | 1.0 | 3.0 | 0.00 | 0.00 | 0.00 | 77 | 1020.7 |
| 20260902025035 | 68 | 0 | 0.0 | 3.0 | 0.00 | 0.00 | 0.00 | 76 | 1020.7 |
| 20260902024603 | 69 | 24 | 1.0 | 3.0 | 0.00 | 0.00 | 0.00 | 77 | 1020.8 |
| 20260902024034 | 69 | 355 | 1.0 | 3.0 | 0.00 | 0.00 | 0.00 | 77 | 1020.8 |
| 20260902023534 | 69 | 43 | 0.0 | 5.0 | 0.00 | 0.00 | 0.00 | 77 | 1020.7 |
| 20260902023055 | 69 | 30 | 1.0 | 5.0 | 0.00 | 0.00 | 0.00 | 77 | 1020.7 |
| 20260902022630 | 68 | 38 | 2.0 | 5.0 | 0.00 | 0.00 | 0.00 | 77 | 1020.8 |
| 20260902022035 | 68 | 43 | 2.0 | 6.0 | 0.00 | 0.00 | 0.00 | 78 | 1020.7 |
| 20260902021556 | 68 | 71 | 2.0 | 6.0 | 0.00 | 0.00 | 0.00 | 78 | 1020.8 |
| 20260902021035 | 68 | 30 | 1.0 | 2.0 | 0.00 | 0.00 | 0.00 | 78 | 1020.8 |
| 20260902020535 | 68 | 121 | 0.0 | 2.0 | 0.00 | 0.00 | 0.00 | 78 | 1020.8 |
| 20260902020113 | 68 | 0 | 0.0 | 2.0 | 0.00 | 0.00 | 0.00 | 78 | 1020.6 |
| 20260902015534 | 68 | 0 | 0.0 | 3.0 | 0.00 | 0.00 | 0.00 | 78 | 1020.6 |
| 20260902015034 | 68 | 5 | 0.0 | 3.0 | 0.00 | 0.00 | 0.00 | 78 | 1020.6 |
| 20260902014559 | 68 | 21 | 1.0 | 3.0 | 0.00 | 0.00 | 0.00 | 79 | 1020.7 |
| 20260902014035 | 68 | 355 | 0.0 | 3.0 | 0.00 | 0.00 | 0.00 | 79 | 1020.8 |
| 20260902013534 | 68 | 355 | 1.0 | 3.0 | 0.00 | 0.00 | 0.00 | 78 | 1020.6 |
| 20260902013054 | 68 | 343 | 1.0 | 3.0 | 0.00 | 0.00 | 0.00 | 78 | 1020.7 |
| 20260902012535 | 68 | 0 | 1.0 | 3.0 | 0.00 | 0.00 | 0.00 | 78 | 1020.6 |
| 20260902012035 | 68 | 346 | 1.0 | 3.0 | 0.00 | 0.00 | 0.00 | 79 | 1020.7 |
| 20260902011552 | 68 | 0 | 0.0 | 2.0 | 0.00 | 0.00 | 0.00 | 79 | 1020.7 |
| 20260902011035 | 68 | 0 | 1.0 | 2.0 | 0.00 | 0.00 | 0.00 | 79 | 1020.7 |
| 20260902010535 | 68 | 360 | 1.0 | 2.0 | 0.00 | 0.00 | 0.00 | 79 | 1020.6 |
| 20260902010052 | 68 | 355 | 1.0 | 2.0 | 0.00 | 0.00 | 0.00 | 79 | 1020.8 |
| 20260902005538 | 68 | 355 | 0.0 | 2.0 | 0.00 | 0.00 | 0.00 | 79 | 1020.8 |
| 20260902005035 | 68 | 350 | 1.0 | 2.0 | 0.00 | 0.00 | 0.00 | 79 | 1020.7 |
| 20260902004554 | 68 | 329 | 1.0 | 3.0 | 0.00 | 0.00 | 0.00 | 79 | 1020.7 |
| 20260902004034 | 68 | 15 | 1.0 | 3.0 | 0.00 | 0.00 | 0.00 | 79 | 1020.8 |
| 20260902003535 | 68 | 330 | 1.0 | 2.0 | 0.00 | 0.00 | 0.00 | 78 | 1020.8 |
| 20260902003104 | 68 | 10 | 1.0 | 2.0 | 0.00 | 0.00 | 0.00 | 78 | 1020.9 |
| 20260902002535 | 68 | 355 | 0.0 | 2.0 | 0.00 | 0.00 | 0.00 | 78 | 1020.9 |
| 20260902002035 | 69 | 0 | 0.0 | 2.0 | 0.00 | 0.00 | 0.00 | 78 | 1020.9 |
| 20260902001554 | 69 | 0 | 0.0 | 2.0 | 0.00 | 0.00 | 0.00 | 78 | 1020.9 |
| 20260902001034 | 69 | 0 | 0.0 | 2.0 | 0.00 | 0.00 | 0.00 | 77 | 1020.9 |
| 20260902000537 | 69 | 288 | 0.0 | 1.0 | 0.00 | 0.00 | 0.00 | 78 | 1020.9 |
| 20260902000052 | 69 | 0 | 0.0 | 1.0 | 0.00 | 0.00 | 0.00 | 77 | 1020.8 |
| 20260901235536 | 69 | 0 | 0.0 | 1.0 | 0.00 | 0.00 | 0.00 | 76 | 1020.8 |
| 20260901235035 | 69 | 0 | 0.0 | 1.0 | 0.00 | 0.00 | 0.00 | 76 | 1020.8 |
| 20260901234603 | 69 | 0 | 0.0 | 1.0 | 0.00 | 0.00 | 0.00 | 77 | 1020.8 |
| 20260901234034 | 69 | 0 | 0.0 | 2.0 | 0.00 | 0.00 | 0.00 | 77 | 1020.7 |
| 20260901233535 | 69 | 0 | 0.0 | 3.0 | 0.00 | 0.00 | 0.00 | 77 | 1020.7 |
| 20260901233103 | 69 | 0 | 1.0 | 3.0 | 0.00 | 0.00 | 0.00 | 77 | 1020.7 |
| 20260901232536 | 69 | 352 | 1.0 | 3.0 | 0.00 | 0.00 | 0.00 | 77 | 1020.7 |
| 20260901232035 | 70 | 325 | 1.0 | 3.0 | 0.00 | 0.00 | 0.00 | 77 | 1020.6 |
| 20260901231553 | 70 | 355 | 0.0 | 3.0 | 0.00 | 0.00 | 0.00 | 77 | 1020.7 |
| 20260901231035 | 70 | 346 | 0.0 | 3.0 | 0.00 | 0.00 | 0.00 | 77 | 1020.8 |
| 20260901230535 | 70 | 344 | 1.0 | 3.0 | 0.00 | 0.00 | 0.00 | 77 | 1020.7 |
| 20260901230105 | 70 | 334 | 0.0 | 3.0 | 0.00 | 0.00 | 0.00 | 77 | 1020.7 |
| 20260901225538 | 69 | 321 | 1.0 | 3.0 | 0.00 | 0.00 | 0.00 | 77 | 1020.8 |
| 20260901225034 | 69 | 16 | 1.0 | 3.0 | 0.00 | 0.00 | 0.00 | 78 | 1020.9 |
| 20260901224553 | 70 | 5 | 0.0 | 3.0 | 0.00 | 0.00 | 0.00 | 78 | 1020.8 |
| 20260901224036 | 70 | 344 | 1.0 | 3.0 | 0.00 | 0.00 | 0.00 | 77 | 1020.9 |
| 20260901223534 | 70 | 5 | 1.0 | 3.0 | 0.00 | 0.00 | 0.00 | 77 | 1020.9 |
| 20260901223101 | 70 | 350 | 1.0 | 3.0 | 0.00 | 0.00 | 0.00 | 77 | 1020.8 |
| 20260901222536 | 70 | 5 | 1.0 | 3.0 | 0.00 | 0.00 | 0.00 | 76 | 1020.8 |
| 20260901222036 | 70 | 14 | 1.0 | 3.0 | 0.00 | 0.00 | 0.00 | 77 | 1020.8 |
| 20260901221618 | 70 | 15 | 2.0 | 3.0 | 0.00 | 0.00 | 0.00 | 76 | 1020.8 |
| 20260901221035 | 70 | 17 | 1.0 | 3.0 | 0.00 | 0.00 | 0.00 | 76 | 1020.8 |
| 20260901220534 | 71 | 355 | 2.0 | 3.0 | 0.00 | 0.00 | 0.00 | 76 | 1020.8 |
| 20260901220054 | 71 | 28 | 2.0 | 3.0 | 0.00 | 0.00 | 0.00 | 76 | 1020.8 |
| 20260901215535 | 71 | 17 | 1.0 | 3.0 | 0.00 | 0.00 | 0.00 | 75 | 1020.8 |
| 20260901215035 | 71 | 5 | 1.0 | 3.0 | 0.00 | 0.00 | 0.00 | 75 | 1020.8 |
| 20260901214559 | 71 | 5 | 1.0 | 3.0 | 0.00 | 0.00 | 0.00 | 75 | 1020.8 |
| 20260901214034 | 71 | 329 | 1.0 | 3.0 | 0.00 | 0.00 | 0.00 | 74 | 1020.7 |
| 20260901213535 | 72 | 45 | 1.0 | 3.0 | 0.00 | 0.00 | 0.00 | 74 | 1020.8 |
| 20260901213105 | 72 | 355 | 1.0 | 3.0 | 0.00 | 0.00 | 0.00 | 74 | 1020.7 |
| 20260901212534 | 72 | 0 | 1.0 | 3.0 | 0.00 | 0.00 | 0.00 | 73 | 1020.7 |
| 20260901212035 | 72 | 0 | 0.0 | 3.0 | 0.00 | 0.00 | 0.00 | 73 | 1020.7 |
| 20260901211556 | 72 | 0 | 1.0 | 3.0 | 0.00 | 0.00 | 0.00 | 73 | 1020.8 |
| 20260901211034 | 72 | 15 | 1.0 | 3.0 | 0.00 | 0.00 | 0.00 | 72 | 1020.7 |
| 20260901210534 | 72 | 323 | 0.0 | 4.0 | 0.00 | 0.00 | 0.00 | 73 | 1020.7 |
| 20260901205535 | 73 | 22 | 2.0 | 3.0 | 0.00 | 0.00 | 0.00 | 73 | 1020.7 |
| 20260901205034 | 73 | 5 | 1.0 | 3.0 | 0.00 | 0.00 | 0.00 | 72 | 1020.7 |
| 20260901204602 | 73 | 96 | 0.0 | 2.0 | 0.00 | 0.00 | 0.00 | 72 | 1020.7 |
| 20260901204034 | 73 | 0 | 0.0 | 2.0 | 0.00 | 0.00 | 0.00 | 73 | 1020.6 |
| 20260901203534 | 73 | 0 | 0.0 | 2.0 | 0.00 | 0.00 | 0.00 | 72 | 1020.4 |
| 20260901203104 | 73 | 0 | 0.0 | 3.0 | 0.00 | 0.00 | 0.00 | 72 | 1020.4 |
| 20260901202533 | 73 | 28 | 0.0 | 3.0 | 0.00 | 0.00 | 0.00 | 70 | 1020.4 |
| 20260901202034 | 73 | 36 | 2.0 | 3.0 | 0.00 | 0.00 | 0.00 | 71 | 1020.4 |
| 20260901201604 | 74 | 5 | 0.0 | 3.0 | 0.00 | 0.00 | 0.00 | 70 | 1020.3 |
| 20260901201035 | 74 | 0 | 0.0 | 3.0 | 0.00 | 0.00 | 0.00 | 70 | 1020.3 |
| 20260901200534 | 74 | 360 | 1.0 | 3.0 | 0.00 | 0.00 | 0.00 | 70 | 1020.3 |
| 20260901200100 | 74 | 0 | 1.0 | 3.0 | 0.00 | 0.00 | 0.00 | 68 | 1020.3 |
| 20260901195535 | 74 | 0 | 0.0 | 4.0 | 0.00 | 0.00 | 0.00 | 68 | 1020.3 |
| 20260901195035 | 74 | 0 | 1.0 | 4.0 | 0.00 | 0.00 | 0.00 | 68 | 1020.3 |
| 20260901194603 | 74 | 315 | 2.0 | 4.0 | 0.00 | 0.00 | 0.00 | 68 | 1020.1 |
| 20260901194036 | 74 | 10 | 1.0 | 4.0 | 0.00 | 0.00 | 0.00 | 69 | 1020.0 |
| 20260901193534 | 74 | 315 | 1.0 | 3.0 | 0.00 | 0.00 | 0.00 | 69 | 1020.0 |
| 20260901193107 | 74 | 333 | 1.0 | 3.0 | 0.00 | 0.00 | 0.00 | 69 | 1020.0 |
| 20260901192535 | 74 | 355 | 0.0 | 4.0 | 0.00 | 0.00 | 0.00 | 69 | 1020.0 |
| 20260901192040 | 74 | 350 | 1.0 | 4.0 | 0.00 | 0.00 | 0.00 | 68 | 1019.9 |
| 20260901191557 | 74 | 276 | 1.0 | 4.0 | 0.00 | 0.00 | 0.00 | 69 | 1019.8 |
| 20260901191035 | 75 | 0 | 0.0 | 3.0 | 0.00 | 0.00 | 0.00 | 68 | 1019.8 |
| 20260901190534 | 75 | 0 | 1.0 | 3.0 | 0.00 | 0.00 | 0.00 | 67 | 1019.6 |
| 20260901190051 | 75 | 284 | 0.0 | 3.0 | 0.00 | 0.00 | 0.00 | 67 | 1019.6 |
| 20260901185534 | 75 | 0 | 0.0 | 3.0 | 0.00 | 0.00 | 0.00 | 67 | 1019.6 |
| 20260901185034 | 75 | 0 | 0.0 | 4.0 | 0.00 | 0.00 | 0.00 | 67 | 1019.5 |
| 20260901184607 | 75 | 5 | 0.0 | 4.0 | 0.00 | 0.00 | 0.00 | 67 | 1019.4 |
| 20260901184034 | 75 | 355 | 1.0 | 4.0 | 0.00 | 0.00 | 0.00 | 67 | 1019.4 |
| 20260901183537 | 76 | 349 | 0.0 | 3.0 | 0.00 | 0.00 | 0.00 | 66 | 1019.4 |
| 20260901183058 | 76 | 0 | 0.0 | 3.0 | 0.00 | 0.00 | 0.00 | 67 | 1019.3 |
| 20260901182537 | 76 | 0 | 1.0 | 3.0 | 0.00 | 0.00 | 0.00 | 66 | 1019.2 |
| 20260901182035 | 76 | 0 | 0.0 | 3.0 | 0.00 | 0.00 | 0.00 | 67 | 1019.2 |
| 20260901181554 | 76 | 0 | 1.0 | 3.0 | 0.00 | 0.00 | 0.00 | 66 | 1019.2 |
| 20260901181035 | 76 | 317 | 0.0 | 2.0 | 0.00 | 0.00 | 0.00 | 66 | 1019.2 |
| 20260901180537 | 77 | 13 | 0.0 | 3.0 | 0.00 | 0.00 | 0.00 | 66 | 1019.2 |
| 20260901180052 | 77 | 0 | 0.0 | 3.0 | 0.00 | 0.00 | 0.00 | 66 | 1019.1 |
| 20260901175540 | 77 | 0 | 0.0 | 2.0 | 0.00 | 0.00 | 0.00 | 65 | 1019.0 |
| 20260901175036 | 77 | 352 | 0.0 | 2.0 | 0.00 | 0.00 | 0.00 | 65 | 1019.1 |
| 20260901174558 | 78 | 0 | 0.0 | 2.0 | 0.00 | 0.00 | 0.00 | 65 | 1018.9 |
| 20260901174038 | 78 | 0 | 0.0 | 2.0 | 0.00 | 0.00 | 0.00 | 65 | 1019.0 |
| 20260901173539 | 78 | 0 | 0.0 | 2.0 | 0.00 | 0.00 | 0.00 | 66 | 1019.0 |
| 20260901173054 | 78 | 0 | 0.0 | 2.0 | 0.00 | 0.00 | 0.00 | 65 | 1018.9 |
| 20260901172536 | 79 | 335 | 0.0 | 3.0 | 0.00 | 0.00 | 0.00 | 66 | 1018.9 |
| 20260901172035 | 79 | 0 | 0.0 | 4.0 | 0.00 | 0.00 | 0.00 | 65 | 1018.8 |
| 20260901171606 | 79 | 0 | 0.0 | 4.0 | 0.00 | 0.00 | 0.00 | 65 | 1018.7 |
| 20260901171035 | 79 | 272 | 0.0 | 4.0 | 0.00 | 0.00 | 0.00 | 65 | 1018.9 |
| 20260901170536 | 79 | 255 | 0.0 | 5.0 | 0.00 | 0.00 | 0.00 | 64 | 1018.8 |
| 20260901170058 | 80 | 284 | 1.0 | 5.0 | 0.00 | 0.00 | 0.00 | 63 | 1018.8 |
| 20260901165534 | 80 | 273 | 2.0 | 6.0 | 0.00 | 0.00 | 0.00 | 63 | 1018.8 |
| 20260901165035 | 80 | 279 | 2.0 | 8.0 | 0.00 | 0.00 | 0.00 | 64 | 1018.8 |
| 20260901164604 | 80 | 221 | 3.0 | 8.0 | 0.00 | 0.00 | 0.00 | 64 | 1018.7 |
| 20260901164036 | 80 | 241 | 3.0 | 8.0 | 0.00 | 0.00 | 0.00 | 63 | 1018.8 |
| 20260901163536 | 80 | 242 | 4.0 | 8.0 | 0.00 | 0.00 | 0.00 | 62 | 1018.8 |
| 20260901163119 | 80 | 220 | 2.0 | 7.0 | 0.00 | 0.00 | 0.00 | 62 | 1018.8 |
| 20260901162535 | 80 | 273 | 4.0 | 9.0 | 0.00 | 0.00 | 0.00 | 61 | 1018.8 |
| 20260901162039 | 81 | 233 | 3.0 | 9.0 | 0.00 | 0.00 | 0.00 | 60 | 1018.8 |
| 20260901161557 | 81 | 258 | 4.0 | 9.0 | 0.00 | 0.00 | 0.00 | 59 | 1018.7 |
| 20260901161040 | 82 | 233 | 4.0 | 9.0 | 0.00 | 0.00 | 0.00 | 58 | 1018.7 |
| 20260901160535 | 82 | 245 | 4.0 | 9.0 | 0.00 | 0.00 | 0.00 | 58 | 1018.8 |
| 20260901155535 | 82 | 240 | 6.0 | 11.0 | 0.00 | 0.00 | 0.00 | 57 | 1018.8 |
| 20260901155038 | 82 | 279 | 5.0 | 11.0 | 0.00 | 0.00 | 0.00 | 57 | 1018.8 |
| 20260901154552 | 83 | 257 | 6.0 | 11.0 | 0.00 | 0.00 | 0.00 | 56 | 1018.8 |
| 20260901154035 | 83 | 261 | 6.0 | 10.0 | 0.00 | 0.00 | 0.00 | 54 | 1018.9 |
| 20260901153537 | 83 | 265 | 4.0 | 10.0 | 0.00 | 0.00 | 0.00 | 54 | 1018.9 |
| 20260901153102 | 83 | 273 | 5.0 | 10.0 | 0.00 | 0.00 | 0.00 | 55 | 1018.8 |
| 20260901152535 | 83 | 253 | 4.0 | 10.0 | 0.00 | 0.00 | 0.00 | 54 | 1018.8 |
| 20260901152036 | 83 | 277 | 5.0 | 10.0 | 0.00 | 0.00 | 0.00 | 54 | 1018.9 |
| 20260901151600 | 84 | 298 | 5.0 | 13.0 | 0.00 | 0.00 | 0.00 | 52 | 1018.8 |
| 20260901151035 | 84 | 279 | 6.0 | 13.0 | 0.00 | 0.00 | 0.00 | 54 | 1018.8 |
| 20260901150534 | 84 | 243 | 3.0 | 10.0 | 0.00 | 0.00 | 0.00 | 54 | 1018.8 |
| 20260901150053 | 84 | 252 | 3.0 | 11.0 | 0.00 | 0.00 | 0.00 | 54 | 1018.9 |
| 20260901145535 | 84 | 248 | 4.0 | 11.0 | 0.00 | 0.00 | 0.00 | 53 | 1018.7 |
| 20260901145034 | 84 | 235 | 6.0 | 11.0 | 0.00 | 0.00 | 0.00 | 54 | 1018.9 |
| 20260901144605 | 84 | 248 | 3.0 | 10.0 | 0.00 | 0.00 | 0.00 | 53 | 1019.0 |
| 20260901144034 | 84 | 248 | 5.0 | 10.0 | 0.00 | 0.00 | 0.00 | 53 | 1018.9 |
| 20260901143534 | 84 | 270 | 5.0 | 13.0 | 0.00 | 0.00 | 0.00 | 53 | 1018.9 |
| 20260901143104 | 84 | 265 | 6.0 | 13.0 | 0.00 | 0.00 | 0.00 | 53 | 1018.9 |
| 20260901142537 | 83 | 250 | 6.0 | 10.0 | 0.00 | 0.00 | 0.00 | 54 | 1018.9 |
| 20260901142035 | 83 | 263 | 5.0 | 15.0 | 0.00 | 0.00 | 0.00 | 53 | 1018.9 |
| 20260901141556 | 83 | 247 | 8.0 | 15.0 | 0.00 | 0.00 | 0.00 | 54 | 1018.9 |
| 20260901141035 | 84 | 249 | 7.0 | 12.0 | 0.00 | 0.00 | 0.00 | 53 | 1019.1 |
| 20260901140534 | 84 | 271 | 5.0 | 10.0 | 0.00 | 0.00 | 0.00 | 53 | 1019.0 |
| 20260901140105 | 83 | 229 | 5.0 | 10.0 | 0.00 | 0.00 | 0.00 | 54 | 1019.1 |
| 20260901135535 | 83 | 230 | 5.0 | 10.0 | 0.00 | 0.00 | 0.00 | 53 | 1019.1 |